MDT,Max TemperatureF,Mean TemperatureF,Min TemperatureF,Max Dew PointF,MeanDew PointF,Min DewpointF,Max Humidity, Mean Humidity, Min Humidity, Max Sea Level PressureIn, Mean Sea Level PressureIn, Min Sea Level PressureIn, Max VisibilityMiles, Mean VisibilityMiles, Min VisibilityMiles, Max Wind SpeedMPH, Mean Wind SpeedMPH, Max Gust SpeedMPH,PrecipitationIn, CloudCover, Events, WindDirDegrees
2013-4-1,62,43,24,25,22,19,81,52,22,30.19,30.12,30.04,10,10,10,13,5,16,0.00,0,,55
2013-4-2,72,50,27,29,25,21,75,46,17,30.06,29.96,29.86,10,10,10,22,11,36,0.00,0,,229
2013-4-3,58,47,36,32,30,24,64,51,38,30.14,30.04,29.87,10,10,10,24,10,28,0.00,2,,9
2013-4-4,62,43,24,39,27,19,81,57,32,30.17,29.98,29.71,10,10,10,16,7,21,0.01,3,Rain,6
2013-4-5,64,52,40,39,32,24,65,45,24,29.83,29.70,29.62,10,10,10,33,19,41,0.00,1,,231
2013-4-6,60,49,38,33,29,25,53,41,28,29.82,29.78,29.73,10,10,10,31,16,37,0.00,3,,226
2013-4-7,50,38,26,54,29,24,92,67,42,30.12,29.77,29.63,10,7,1,26,11,31,0.18,6,Rain-Snow,346
2013-4-8,28,21,14,25,16,9,88,78,67,30.52,30.16,29.89,10,3,1,18,10,21,0.14,8,Snow,13
2013-4-9,34,22,9,21,16,7,100,76,51,30.59,30.48,30.30,10,10,10,13,6,16,0.00,2,,174
2013-4-10,60,43,25,34,27,17,75,56,36,30.32,29.98,29.71,10,10,10,28,15,37,0.00,1,,214
2013-4-11,53,43,33,33,27,18,82,55,28,30.07,29.91,29.75,10,10,10,28,12,35,0.01,7,,280
2013-4-12,49,40,30,29,26,22,92,64,36,30.19,30.01,29.64,10,9,4,16,7,24,T,6,Snow,55
2013-4-13,53,41,28,31,19,7,78,50,21,29.73,29.51,29.39,10,10,10,41,19,48,0.01,4,,263
2013-4-14,31,26,21,26,21,18,96,80,63,30.12,29.92,29.68,10,5,1,29,19,37,0.03,8,Snow,330
2013-4-15,31,25,18,23,19,16,92,81,69,30.34,30.11,29.96,10,4,1,21,12,24,0.07,8,Snow,4
2013-4-16,31,25,18,25,20,17,92,84,75,30.50,30.27,30.13,10,4,0,17,8,21,0.09,8,Fog-Snow,20
2013-4-17,40,28,15,21,18,11,100,65,30,30.50,30.37,30.29,10,6,0,13,6,16,0.01,6,Snow,245
2013-4-18,56,41,25,24,19,14,63,44,24,30.32,30.20,30.12,10,10,10,20,12,25,0.00,4,,238
2013-4-19,57,45,33,32,28,23,70,54,38,30.11,29.91,29.79,10,10,10,29,16,37,T,4,,224
2013-4-20,62,45,27,34,30,20,92,57,22,30.13,29.92,29.81,10,8,0,35,18,53,0.12,7,Fog-Rain-Snow,297
2013-4-21,27,24,20,27,21,18,100,91,81,30.48,30.23,30.09,10,3,0,18,9,21,0.21,8,Fog-Snow,359
2013-4-22,35,23,10,19,16,10,92,65,38,30.63,30.53,30.30,10,10,10,13,6,16,0.00,2,,282
2013-4-23,49,35,21,24,19,14,77,53,29,30.44,30.28,30.21,10,10,10,21,12,26,0.00,2,,260
2013-4-24,59,44,28,34,28,20,100,62,23,30.31,30.17,29.91,10,6,1,28,14,37,0.09,5,Snow,234
2013-4-25,66,52,37,28,24,22,60,39,18,29.99,29.86,29.78,10,10,10,26,15,36,0.00,3,,253
2013-4-26,72,55,38,32,29,28,64,42,20,30.06,30.02,29.97,10,10,10,28,16,36,0.00,0,,230
2013-4-27,71,61,51,32,28,23,48,33,17,30.00,29.89,29.78,10,10,6,39,23,47,0.00,1,,236
2013-4-28,64,54,44,34,29,24,60,42,23,30.00,29.87,29.74,10,10,10,31,17,40,T,2,,242
2013-4-29,58,44,30,32,25,18,72,50,28,29.84,29.61,29.47,10,10,2,44,24,55,0.00,2,,253
2013-4-30,39,30,21,32,24,17,92,70,47,30.42,30.06,29.86,10,7,0,24,10,28,0.04,7,Fog-Snow,339